TimeCDT,TemperatureF,Dew PointF,Humidity,Sea Level PressureIn,VisibilityMPH,Wind Direction,Wind SpeedMPH,Gust SpeedMPH,PrecipitationIn,Events,Conditions,WindDirDegrees,DateUTC
12:55 AM,71.6,68.0,88,29.94,10.0,NE,4.6,-,N/A,,Scattered Clouds,50,2013-06-17 05:55:00
1:15 AM,71.6,69.8,94,29.95,7.0,Calm,Calm,-,N/A,,Mostly Cloudy,0,2013-06-17 06:15:00
1:35 AM,71.6,69.8,94,29.95,10.0,ENE,5.8,-,N/A,,Mostly Cloudy,60,2013-06-17 06:35:00
2:15 AM,71.6,69.8,94,29.94,10.0,ESE,5.8,-,N/A,,Overcast,110,2013-06-17 07:15:00
2:35 AM,71.6,64.4,78,29.94,10.0,SE,9.2,-,N/A,,Overcast,140,2013-06-17 07:35:00
2:55 AM,69.8,64.4,83,29.95,10.0,South,6.9,-,N/A,,Overcast,190,2013-06-17 07:55:00
3:15 AM,69.8,64.4,83,29.92,10.0,SSE,4.6,-,N/A,Thunderstorm,Thunderstorm,160,2013-06-17 08:15:00
3:35 AM,69.8,64.4,83,29.92,10.0,South,4.6,-,N/A,,Scattered Clouds,190,2013-06-17 08:35:00
3:55 AM,69.8,60.8,73,29.91,10.0,South,5.8,-,N/A,,Clear,180,2013-06-17 08:55:00
4:15 AM,68.0,62.6,83,29.91,10.0,SSE,9.2,-,N/A,,Clear,150,2013-06-17 09:15:00
4:35 AM,68.0,64.4,88,29.92,10.0,South,6.9,-,N/A,,Clear,170,2013-06-17 09:35:00
4:55 AM,68.0,64.4,88,29.92,10.0,Calm,Calm,-,N/A,,Mostly Cloudy,0,2013-06-17 09:55:00
5:15 AM,68.0,64.4,88,29.90,10.0,Calm,Calm,-,N/A,,Scattered Clouds,0,2013-06-17 10:15:00
5:35 AM,68.0,64.4,88,29.89,10.0,NNW,5.8,-,N/A,,Clear,340,2013-06-17 10:35:00
5:55 AM,68.0,64.4,88,29.90,10.0,Calm,Calm,-,N/A,,Clear,0,2013-06-17 10:55:00
6:15 AM,68.0,64.4,88,29.91,10.0,West,4.6,-,N/A,,Clear,280,2013-06-17 11:15:00
6:35 AM,68.0,64.4,88,29.93,10.0,Calm,Calm,-,N/A,,Clear,0,2013-06-17 11:35:00
6:55 AM,68.0,64.4,88,29.93,10.0,ENE,8.1,-,N/A,,Clear,60,2013-06-17 11:55:00
7:15 AM,68.0,64.4,88,29.94,10.0,ENE,9.2,-,N/A,,Clear,70,2013-06-17 12:15:00
7:35 AM,68.0,64.4,88,29.96,10.0,East,6.9,-,N/A,,Clear,100,2013-06-17 12:35:00
7:55 AM,68.0,64.4,88,29.96,10.0,ENE,8.1,-,N/A,,Scattered Clouds,70,2013-06-17 12:55:00
8:15 AM,68.0,64.4,88,29.97,10.0,SE,6.9,-,N/A,,Overcast,140,2013-06-17 13:15:00
8:35 AM,68.0,64.4,88,29.97,10.0,SSE,5.8,-,N/A,,Scattered Clouds,150,2013-06-17 13:35:00
8:55 AM,69.8,64.4,83,29.98,10.0,ESE,5.8,-,N/A,,Mostly Cloudy,110,2013-06-17 13:55:00
9:15 AM,69.8,64.4,83,29.98,10.0,South,5.8,-,N/A,,Overcast,170,2013-06-17 14:15:00
9:35 AM,69.8,64.4,83,29.97,10.0,SSE,5.8,-,N/A,,Scattered Clouds,150,2013-06-17 14:35:00
9:55 AM,71.6,64.4,78,29.98,10.0,SSE,4.6,-,N/A,,Scattered Clouds,150,2013-06-17 14:55:00
10:15 AM,71.6,64.4,78,29.97,10.0,SSE,4.6,-,N/A,,Clear,160,2013-06-17 15:15:00
10:35 AM,71.6,64.4,78,29.97,10.0,South,4.6,-,N/A,,Clear,170,2013-06-17 15:35:00
10:55 AM,71.6,64.4,78,29.98,10.0,South,5.8,-,N/A,,Clear,170,2013-06-17 15:55:00
11:15 AM,71.6,64.4,78,29.99,10.0,SW,4.6,-,N/A,,Mostly Cloudy,220,2013-06-17 16:15:00
11:35 AM,73.4,66.2,78,30.00,10.0,SSW,5.8,-,N/A,,Overcast,200,2013-06-17 16:35:00
11:55 AM,73.4,64.4,73,30.00,10.0,SSW,4.6,-,N/A,,Overcast,210,2013-06-17 16:55:00
12:15 PM,73.4,64.4,73,30.00,10.0,South,5.8,-,N/A,,Scattered Clouds,190,2013-06-17 17:15:00
12:35 PM,75.2,64.4,69,30.00,10.0,SW,5.8,-,N/A,Thunderstorm,Thunderstorm,230,2013-06-17 17:35:00
12:55 PM,73.4,66.2,78,30.00,10.0,SW,4.6,-,N/A,Thunderstorm,Thunderstorm,230,2013-06-17 17:55:00
1:15 PM,71.6,66.2,83,30.00,10.0,West,4.6,-,N/A,Thunderstorm,Unknown,270,2013-06-17 18:15:00
1:35 PM,71.6,68.0,88,30.00,10.0,NW,5.8,-,N/A,Rain-Thunderstorm,Thunderstorms and Rain,310,2013-06-17 18:35:00
1:55 PM,69.8,68.0,94,29.99,1.2,SW,8.1,-,N/A,Rain-Thunderstorm,Heavy Thunderstorms and Rain,230,2013-06-17 18:55:00
2:15 PM,68.0,64.4,88,29.98,5.0,WSW,4.6,-,N/A,Rain-Thunderstorm,Light Thunderstorms and Rain,240,2013-06-17 19:15:00
2:35 PM,68.0,64.4,88,29.97,10.0,WNW,4.6,-,N/A,Rain-Thunderstorm,Light Thunderstorms and Rain,300,2013-06-17 19:35:00
2:55 PM,68.0,66.2,94,29.98,10.0,WNW,5.8,-,N/A,Rain-Thunderstorm,Light Thunderstorms and Rain,290,2013-06-17 19:55:00
3:15 PM,68.0,66.2,94,29.97,10.0,WNW,4.6,-,N/A,Rain-Thunderstorm,Light Thunderstorms and Rain,300,2013-06-17 20:15:00
3:35 PM,68.0,64.4,88,29.97,10.0,WNW,6.9,-,N/A,Thunderstorm,Unknown,290,2013-06-17 20:35:00
3:55 PM,68.0,64.4,88,29.96,10.0,West,8.1,-,N/A,Rain,Light Rain,270,2013-06-17 20:55:00
4:55 PM,64.4,62.6,94,29.95,10.0,NNE,4.6,-,N/A,Rain,Light Rain,20,2013-06-17 21:55:00
5:15 PM,64.4,62.6,94,29.94,10.0,Calm,Calm,-,N/A,Rain,Light Rain,0,2013-06-17 22:15:00
5:35 PM,66.2,62.6,88,29.93,10.0,Calm,Calm,-,N/A,,Light Drizzle,0,2013-06-17 22:35:00
5:55 PM,66.2,62.6,88,29.93,10.0,Calm,Calm,-,N/A,,Clear,0,2013-06-17 22:55:00
6:15 PM,68.0,62.6,83,29.93,10.0,Calm,Calm,-,N/A,,Clear,0,2013-06-17 23:15:00
6:35 PM,68.0,64.4,88,29.94,10.0,Calm,Calm,-,N/A,,Clear,0,2013-06-17 23:35:00
6:55 PM,68.0,64.4,88,29.94,10.0,Calm,Calm,-,N/A,,Clear,0,2013-06-17 23:55:00
7:15 PM,68.0,64.4,88,29.94,10.0,Calm,Calm,-,N/A,,Clear,0,2013-06-18 00:15:00
7:35 PM,69.8,64.4,83,29.95,10.0,Calm,Calm,-,N/A,,Clear,0,2013-06-18 00:35:00
7:55 PM,69.8,64.4,83,29.95,10.0,Calm,Calm,-,N/A,,Clear,0,2013-06-18 00:55:00
8:35 PM,68.0,64.4,88,29.95,10.0,Calm,Calm,-,N/A,,Clear,0,2013-06-18 01:35:00
8:55 PM,68.0,64.4,88,29.95,10.0,Calm,Calm,-,N/A,,Clear,0,2013-06-18 01:55:00
9:15 PM,66.2,64.4,94,29.95,10.0,Calm,Calm,-,N/A,,Clear,0,2013-06-18 02:15:00
9:35 PM,64.4,64.4,100,29.95,10.0,Calm,Calm,-,N/A,,Clear,0,2013-06-18 02:35:00
9:55 PM,64.4,62.6,94,29.96,10.0,Calm,Calm,-,N/A,,Clear,0,2013-06-18 02:55:00
10:15 PM,64.4,62.6,94,29.97,10.0,Calm,Calm,-,N/A,,Clear,0,2013-06-18 03:15:00
10:35 PM,64.4,62.6,94,29.98,10.0,South,3.5,-,N/A,,Clear,170,2013-06-18 03:35:00
10:55 PM,64.4,62.6,94,29.98,10.0,South,3.5,-,N/A,,Clear,170,2013-06-18 03:55:00
11:15 PM,64.4,62.6,94,29.97,10.0,Calm,Calm,-,N/A,,Clear,0,2013-06-18 04:15:00
11:35 PM,62.6,60.8,94,29.98,10.0,Calm,Calm,-,N/A,,Clear,0,2013-06-18 04:35:00
11:55 PM,62.6,62.6,100,29.98,10.0,Calm,Calm,-,N/A,,Scattered Clouds,0,2013-06-18 04:55:00